Weather History for K3J7 - April, 2014

Change the Weather History Date:

Tuesday, April 15, 2014

  Actual Average (KDBN) Record (KDBN)
Temperature  
Mean Temperature 48 °F -  
Max Temperature 60 °F 77 °F 91 °F (1936)
Min Temperature 37 °F 51 °F 31 °F (1943)
Degree Days  
Heating Degree Days 16    
Moisture  
Dew Point 48 °F    
Average Humidity 82    
Maximum Humidity 100    
Minimum Humidity 50    
Precipitation  
Precipitation 0.00 in - - ()
Sea Level Pressure  
Sea Level Pressure 29.79 in    
Wind  
Wind Speed 7 mph (WSW)    
Max Wind Speed 16 mph    
Max Gust Speed 26 mph    
Visibility 9 miles    
Events Rain    
Averages and records for this station are not official NWS values.
T = Trace of Precipitation, MM = Missing Value Source: NWS Daily Summary

Daily Weather History Graph

Daily Weather History Graph

Search for Another Location

Airport or City:

Trip Planner

Search our weather history database for the weather conditions in past years. The results will help you decide how hot, cold, wet, or windy it might be!

Date:

Astronomy

Apr. 15, 2014 Rise Set
Actual Time 7:02 AM EDT 8:03 PM EDT
Civil Twilight 6:36 AM EDT 8:29 PM EDT
Nautical Twilight 6:06 AM EDT 8:59 PM EDT
Astronomical Twilight 5:34 AM EDT 9:30 PM EDT
Moon 8:41 PM EDT (4/15) 7:09 AM EDT (4/15)
Length of Visible Light 13h 52m
Length of Day
13h 01m
Full, 100% of the Moon is Illuminated
Apr 15
Full
Apr 22
Last Quarter
Apr 29
New
May 6
First Quarter
May 14
Full

Hourly Weather History & Observations

Time (EDT) Temp. Windchill Dew Point Humidity Pressure Visibility Wind Dir Wind Speed Gust Speed Precip Events Conditions
12:15 AM 60.8 °F - 60.8 °F 100% 29.79 in 3.0 mi Calm Calm - N/A Rain Heavy Rain
1:15 AM 60.8 °F - 60.8 °F 100% 29.81 in 3.0 mi SSW 5.8 mph - N/A Rain Heavy Rain
1:35 AM 60.8 °F - 60.8 °F 100% 29.80 in 5.0 mi SSW 3.5 mph - N/A Rain Rain
1:55 AM 60.8 °F - 60.8 °F 100% 29.80 in 5.0 mi SW 3.5 mph - N/A Rain Rain
2:15 AM 60.8 °F - 60.8 °F 100% 29.80 in 5.0 mi SSW 9.2 mph - N/A Rain Rain
2:35 AM 60.8 °F - 59.0 °F 94% 29.79 in 5.0 mi SSW 9.2 mph 20.7 mph N/A Rain Rain
2:55 AM 60.8 °F - 59.0 °F 94% 29.78 in 10.0 mi SSW 6.9 mph 17.3 mph N/A Rain Light Rain
3:15 AM 60.8 °F - 59.0 °F 94% 29.77 in 10.0 mi Calm Calm - N/A Rain Light Rain
3:35 AM 60.8 °F - 59.0 °F 94% 29.76 in 10.0 mi Calm Calm - N/A   Overcast
3:55 AM 60.8 °F - 59.0 °F 94% 29.75 in 10.0 mi Calm Calm - N/A Rain Light Rain
4:15 AM 59.0 °F - 59.0 °F 100% 29.74 in 10.0 mi Calm Calm - N/A Rain Light Rain
4:35 AM 59.0 °F - 59.0 °F 100% 29.74 in 10.0 mi Calm Calm - N/A   Overcast
4:55 AM 59.0 °F - 59.0 °F 100% 29.74 in 7.0 mi SSE 4.6 mph - N/A   Overcast
5:15 AM 59.0 °F - 59.0 °F 100% 29.75 in 5.0 mi South 5.8 mph - N/A Rain Rain
5:35 AM 59.0 °F - 59.0 °F 100% 29.74 in 4.0 mi South 5.8 mph - N/A Rain Rain
5:55 AM 59.0 °F - 59.0 °F 100% 29.71 in 10.0 mi ESE 5.8 mph - N/A Rain Light Rain
6:15 AM 59.0 °F - 59.0 °F 100% 29.68 in 10.0 mi SE 11.5 mph - N/A Rain Rain
6:35 AM 59.0 °F - 59.0 °F 100% 29.70 in 10.0 mi South 6.9 mph - N/A Rain Rain
6:55 AM 59.0 °F - 57.2 °F 94% 29.70 in 10.0 mi South 8.1 mph - N/A Rain Light Rain
7:15 AM 59.0 °F - 57.2 °F 94% 29.69 in 10.0 mi South 8.1 mph - N/A Rain Rain
7:35 AM 59.0 °F - 55.4 °F 88% 29.70 in 10.0 mi South 9.2 mph - N/A Rain Rain
7:55 AM 59.0 °F - 55.4 °F 88% 29.69 in 10.0 mi SSE 10.4 mph 16.1 mph N/A Rain Light Rain
8:15 AM 59.0 °F - 57.2 °F 94% 29.68 in 10.0 mi SSE 10.4 mph - N/A Rain Light Rain
8:35 AM 59.0 °F - 57.2 °F 94% 29.66 in 10.0 mi SSE 12.7 mph 17.3 mph N/A Rain Rain
8:55 AM 59.0 °F - 57.2 °F 94% 29.67 in 10.0 mi SSE 12.7 mph - N/A   Mostly Cloudy
9:15 AM 59.0 °F - 57.2 °F 94% 29.67 in 10.0 mi SSE 9.2 mph 16.1 mph N/A   Overcast
9:35 AM 59.0 °F - 57.2 °F 94% 29.67 in 10.0 mi SSE 10.4 mph - N/A   Overcast
9:55 AM 59.0 °F - 59.0 °F 100% 29.68 in 10.0 mi South 10.4 mph - N/A   Overcast
10:15 AM 60.8 °F - 59.0 °F 94% 29.69 in 10.0 mi South 10.4 mph - N/A   Overcast
10:35 AM 60.8 °F - 59.0 °F 94% 29.69 in 10.0 mi South 8.1 mph - N/A   Overcast
10:55 AM 60.8 °F - 59.0 °F 94% 29.69 in 10.0 mi South 10.4 mph 16.1 mph N/A   Overcast
11:15 AM 60.8 °F - 59.0 °F 94% 29.70 in 10.0 mi South 9.2 mph - N/A   Overcast
11:35 AM 60.8 °F - 59.0 °F 94% 29.68 in 10.0 mi South 8.1 mph - N/A   Overcast
11:55 AM 60.8 °F - 59.0 °F 94% 29.70 in 10.0 mi WSW 10.4 mph 17.3 mph N/A Rain Rain
12:35 PM 53.6 °F - 51.8 °F 94% 29.72 in 10.0 mi West 13.8 mph 20.7 mph N/A   Overcast
12:55 PM 51.8 °F - 50.0 °F 94% 29.73 in 7.0 mi West 11.5 mph 21.9 mph N/A   Overcast
1:35 PM 53.6 °F - 50.0 °F 88% 29.73 in 10.0 mi West 9.2 mph 19.6 mph N/A   Overcast
1:55 PM 53.6 °F - 46.4 °F 77% 29.74 in 10.0 mi West 11.5 mph 24.2 mph N/A   Overcast
2:15 PM 53.6 °F - 48.2 °F 82% 29.73 in 10.0 mi West 11.5 mph 16.1 mph N/A   Overcast
2:35 PM 53.6 °F - 46.4 °F 77% 29.74 in 10.0 mi West 11.5 mph 21.9 mph N/A   Overcast
2:55 PM 55.4 °F - 46.4 °F 72% 29.74 in 10.0 mi West 8.1 mph 20.7 mph N/A   Overcast
3:15 PM 55.4 °F - 46.4 °F 72% 29.74 in 10.0 mi West 10.4 mph 18.4 mph N/A   Overcast
3:35 PM 55.4 °F - 44.6 °F 67% 29.74 in 10.0 mi West 9.2 mph 19.6 mph N/A   Overcast
3:55 PM 55.4 °F - 44.6 °F 67% 29.75 in 10.0 mi West 13.8 mph 19.6 mph N/A   Overcast
4:15 PM 53.6 °F - 42.8 °F 67% 29.76 in 10.0 mi West 15.0 mph 21.9 mph N/A   Mostly Cloudy
4:35 PM 55.4 °F - 42.8 °F 63% 29.76 in 10.0 mi West 13.8 mph 23.0 mph N/A   Scattered Clouds
4:55 PM 55.4 °F - 42.8 °F 63% 29.77 in 10.0 mi West 11.5 mph 18.4 mph N/A   Scattered Clouds
5:15 PM 55.4 °F - 41.0 °F 58% 29.77 in 10.0 mi West 13.8 mph 26.5 mph N/A   Clear
5:35 PM 55.4 °F - 39.2 °F 54% 29.79 in 10.0 mi WNW 11.5 mph 20.7 mph N/A   Clear
5:55 PM 55.4 °F - 37.4 °F 51% 29.81 in 10.0 mi West 15.0 mph 20.7 mph N/A   Clear
6:15 PM 53.6 °F - 37.4 °F 54% 29.82 in 10.0 mi West 9.2 mph 23.0 mph N/A   Clear
6:35 PM 51.8 °F - 35.6 °F 54% 29.84 in 10.0 mi West 16.1 mph 26.5 mph N/A   Clear
6:55 PM 51.8 °F - 33.8 °F 50% 29.86 in 10.0 mi West 13.8 mph 24.2 mph N/A   Clear
7:15 PM 50.0 °F - 32.0 °F 50% 29.88 in 10.0 mi WNW 10.4 mph 26.5 mph N/A   Clear
7:35 PM 48.2 °F - 32.0 °F 54% 29.90 in 10.0 mi WNW 12.7 mph 25.3 mph N/A   Clear
7:55 PM 46.4 °F 41.9 °F 32.0 °F 57% 29.91 in 10.0 mi WNW 9.2 mph 20.7 mph N/A   Clear
8:15 PM 44.6 °F 38.1 °F 32.0 °F 61% 29.92 in 10.0 mi WNW 13.8 mph 23.0 mph N/A   Clear
8:35 PM 44.6 °F 37.8 °F 30.2 °F 57% 29.93 in 10.0 mi WNW 15.0 mph 24.2 mph N/A   Clear
8:55 PM 42.8 °F 38.6 °F 32.0 °F 66% 29.93 in 10.0 mi WNW 6.9 mph 20.7 mph N/A   Clear
9:15 PM 42.8 °F 37.0 °F 32.0 °F 66% 29.92 in 10.0 mi NW 10.4 mph 17.3 mph N/A   Clear
9:35 PM 42.8 °F 38.0 °F 30.2 °F 61% 29.95 in 10.0 mi WNW 8.1 mph 19.6 mph N/A   Clear
9:55 PM 42.8 °F 38.6 °F 30.2 °F 61% 29.97 in 10.0 mi WNW 6.9 mph - N/A   Clear
10:15 PM 41.0 °F 38.0 °F 30.2 °F 65% 29.99 in 10.0 mi NW 4.6 mph - N/A   Clear
10:35 PM 41.0 °F 37.1 °F 32.0 °F 70% 29.99 in 10.0 mi NW 5.8 mph - N/A   Clear
10:55 PM 41.0 °F 38.0 °F 32.0 °F 70% 30.00 in 10.0 mi WNW 4.6 mph - N/A   Clear
11:15 PM 39.2 °F 37.0 °F 32.0 °F 75% 30.01 in 10.0 mi WNW 3.5 mph - N/A   Clear
11:35 PM 37.4 °F 34.9 °F 32.0 °F 81% 30.03 in 10.0 mi WNW 3.5 mph - N/A   Clear
11:55 PM 37.4 °F 34.9 °F 32.0 °F 81% 30.03 in 10.0 mi NW 3.5 mph - N/A   Clear